Home > Weather > Vevay > Past weeks

Flag for USA Weather for the Past 2 Weeks in Vevay, Indiana, USA

Now
47 °F

Passing clouds.


Feels Like: 42 °F
Forecast: 43 / 63 °F
Wind: 10 mph from Northwest

Location: Cincinnati / Northern Kentucky International Airport

Current Time: May 4, 2016 at 10:54:17 PM

Latest Report: May 4, 2016 at 9:52 PM


Visibility: 10 mi

Pressure: 29.75 "Hg

Humidity: 66%

Dew Point: 36 °F

Location of VevayLocation

Historic Weather in Vevay — Graph

°F

Vevay Temperature Yesterday

Maximum temperature yesterday: 59 °F (at 3:52 PM)
Minimum temperature yesterday: 50 °F (at 11:52 PM)
Average temperature yesterday: 55 °F

High & Low Weather Summary for the Past Weeks

 TemperatureHumidityPressure
High82 °F (Apr 26, 3:52 PM)100% (Apr 26, 11:52 PM)30.14 "Hg (Apr 26, 11:52 PM)
Low46 °F (Apr 24, 5:52 AM)29% (Apr 20, 5:52 PM)29.65 "Hg (May 4, 3:52 PM)
Average62 °F73%29.91 "Hg
* Reported Apr 19 8:52 PM — May 4 8:52 PM, Vevay, Weather by CustomWeather, © 2016

Note: Actual official high and low records may vary slightly from our data, if they occured in-between our weather recording intervals... More about our weather records

Advertising

Vevay Weather History for the Previous 24 Hours

Scroll right to see more
 ConditionsComfort  
Time TempWeatherWind HumidityBarometerVisibility
8:52 PM
Wed, May 4
49 °FScattered clouds.9 mph64%29.74 "Hg10 mi
7:52 PM52 °FScattered clouds.17 mph53%29.72 "Hg10 mi
6:52 PM56 °FScattered clouds.20 mph53%29.70 "Hg10 mi
5:52 PM56 °FScattered clouds.22 mph55%29.67 "Hg10 mi
4:52 PM56 °FBroken clouds.10 mph77%29.65 "Hg10 mi
3:52 PM54 °FPartly sunny.5 mph80%29.65 "Hg10 mi
2:52 PM55 °FMore clouds than sun.7 mph83%29.66 "Hg10 mi
1:52 PM53 °FLight rain. Mostly cloudy.6 mph83%29.67 "Hg9 mi
12:52 PM52 °FLight rain. Cloudy.8 mph83%29.69 "Hg10 mi
11:52 AM52 °FLight rain. Mostly cloudy.6 mph83%29.69 "Hg10 mi
10:52 AM53 °FLight rain. Mostly cloudy.8 mph72%29.70 "Hg10 mi
9:52 AM55 °FMore clouds than sun.12 mph69%29.70 "Hg10 mi
7:52 AM49 °FBroken clouds.7 mph90%29.72 "Hg10 mi
6:52 AM48 °FPartly cloudy.6 mph93%29.72 "Hg9 mi
5:52 AM48 °FOvercast.5 mph93%29.73 "Hg10 mi
4:52 AM48 °FOvercast.5 mph93%29.74 "Hg10 mi
3:52 AM47 °FPassing clouds.3 mph93%29.76 "Hg10 mi
2:52 AM48 °FPassing clouds.5 mph93%29.79 "Hg10 mi
1:52 AM48 °FClear.No wind96%29.81 "Hg8 mi
12:52 AM49 °FPassing clouds.3 mph97%29.83 "Hg7 mi
11:52 PM
Tue, May 3
50 °FFog.3 mph96%29.84 "Hg6 mi
10:52 PM52 °FPassing clouds.5 mph93%29.86 "Hg8 mi
Weather by CustomWeather, © 2016

See weather overviewHow to use our weather pages